Home   Weather   Dannenberg   Past weeks

Flag for Germany Past Weather in Dannenberg, Lower Saxony, Germany — Yesterday and Last 2 Weeks

Now
75 °F

Partly sunny.


Feels Like: 77 °F
Forecast: 52 / 69 °F
Wind: 10 mph from South

Location: Fassberg

Current Time: Sep 25, 2016 at 4:07:28 PM

Latest Report: Sep 25, 2016 at 3:20 PM


Visibility: N/A

Pressure: 30.04 "Hg

Humidity: 36%

Dew Point: 46 °F

Location of DannenbergLocation

Past Weather in Dannenberg — Graph

°F

Dannenberg Temperature Yesterday

Maximum temperature yesterday: 70 °F (at 2:20 PM)
Minimum temperature yesterday: 39 °F (at 6:45 AM)
Average temperature yesterday: 54 °F

High & Low Weather Summary for the Past Weeks

 TemperatureHumidityPressure
High88 °F (Sep 12, 3:20 PM)100% (Sep 12, 2:20 AM)30.30 "Hg (Sep 12, 2:20 AM)
Low39 °F (Sep 24, 6:45 AM)24% (Sep 13, 5:20 PM)29.89 "Hg (Sep 16, 1:20 AM)
Average62 °F73%30.07 "Hg
* Reported Sep 10 2:20 PM — Sep 25 2:20 PM, Dannenberg, Weather by CustomWeather, © 2016

Note: Actual official high and low records may vary slightly from our data, if they occured in-between our weather recording intervals... More about our weather records

Advertising

Dannenberg Weather History for the Previous 24 Hours

Scroll right to see more
 ConditionsComfort  
Time TempWeatherWind HumidityBarometerVisibility
2:20 PM
Sun, Sep 25
73 °FPartly sunny.14 mph38%30.07 "HgN/A
1:20 PM72 °FPartly sunny.15 mph44%30.07 "HgN/A
12:20 PM72 °FPartly sunny.10 mph44%30.09 "HgN/A
11:20 AM70 °FPartly sunny.9 mph46%30.09 "HgN/A
10:20 AM64 °FPartly sunny.7 mph60%30.12 "HgN/A
9:20 AM57 °FPartly sunny.6 mph77%30.12 "HgN/A
8:20 AM46 °FPartly sunny.6 mph93%30.12 "HgN/A
7:20 AM43 °FPartly sunny.5 mph93%30.12 "HgN/A
6:20 AM43 °FPassing clouds.6 mph93%30.15 "HgN/A
5:20 AM45 °FPassing clouds.5 mph93%30.15 "HgN/A
4:20 AM52 °FPassing clouds.2 mph82%30.15 "HgN/A
3:20 AM54 °FPassing clouds.6 mph72%30.18 "HgN/A
2:20 AM57 °FPassing clouds.8 mph67%30.18 "HgN/A
1:20 AM57 °FPassing clouds.8 mph67%30.18 "HgN/A
12:20 AM57 °FPassing clouds.7 mph67%30.18 "HgN/A
11:20 PM
Sat, Sep 24
57 °FPassing clouds.7 mph67%30.21 "HgN/A
10:20 PM52 °FPassing clouds.6 mph77%30.21 "HgN/A
9:20 PM54 °FPassing clouds.6 mph82%30.21 "HgN/A
8:20 PM55 °FPassing clouds.6 mph77%30.21 "HgN/A
7:20 PM59 °FPassing clouds.5 mph68%30.18 "HgN/A
6:20 PM68 °FPartly sunny.5 mph49%30.21 "HgN/A
5:20 PM70 °FBroken clouds.5 mph43%30.21 "HgN/A
4:20 PM70 °FBroken clouds.8 mph43%30.21 "HgN/A
Weather by CustomWeather, © 2016

See weather overviewHow to use our weather pages